Simultaneous Nadir Overpasses (SNOs) Predictions

Prediction of SNOs between LANDSAT-8 and METOP-B Satellite Orbit:

Table of predicted SNOs for the next 14.0 days since TLE Epoch: 1/21/2023
Index Date (LANDSAT-8) Time (LANDSAT-8) Lat,Lon (LANDSAT-8) SZA (LANDSAT-8 ) Date (METOP-B) Time (METOP-B) Lat,Lon (METOP-B) SZA (METOP-B ) Distance(km) Time Diff (sec)
1 01/23/2023 14:19:40 81.11, 4.67 102.17 01/23/2023 14:18:41 81.11, 4.51 102.13 2.84 59
2 01/23/2023 15:09:06 -81.14, 172.66 77.79 01/23/2023 15:09:20 -81.13, 172.53 77.80 2.30 14
3 01/26/2023 09:53:57 81.10, 70.86 101.44 01/26/2023 09:53:02 81.10, 70.69 101.40 2.91 55
4 01/26/2023 10:43:23 -81.12,-121.13 78.52 01/26/2023 10:43:41 -81.12,-121.25 78.53 2.17 18
5 01/29/2023 05:28:12 81.11, 137.49 100.72 01/29/2023 05:27:21 81.11, 137.51 100.71 0.41 51
6 01/29/2023 06:17:38 -81.14, -54.48 79.24 01/29/2023 06:18:00 -81.14, -54.40 79.22 1.37 22
7 02/01/2023 01:02:27 81.10,-156.18 99.93 02/01/2023 01:01:41 81.11,-156.16 99.92 0.60 46
8 02/01/2023 01:51:53 -81.13, 11.86 80.03 02/01/2023 01:52:20 -81.14, 11.95 80.01 1.63 27
9 02/03/2023 20:36:40 81.10, -89.78 99.10 02/03/2023 20:36:00 81.10, -89.96 99.07 3.02 40



Historial Predications of SNOs between LANDSAT-8 and METOP-B
